SCP
0 0 0 0 0 0 0 0 0 0 0 0 0 0 0 0 0 0 0 0 0 0 0 0 0 0 0 0 0 0 0 0 0 0 0 0 0 0 0 0 0 0 0 0
-0 -0 0 0 0 0 0 0 0 0 0 0 0 0 0 0 0 0 0 0 0 0 0 0 0 0 0 0 0 0 0 0 0 0 0 0 0 0 0 0 0 0 0 0
0 -0 -0 -0 0 0 0 0 0 0 0 0 0 0 0 0 0 0 0 0 0 0 0 0 0 0 0 0 0 0 0 0 0 0 0 0 0 0 0 0 0 0 0 0
0 0 -0 -0 0 0 0 0 0 0 0 0 0 0 0 0 0 0 0 0 0 0 0 0 0 0 0 0 0 0 0 0 0 0 0 0 0 0 0 0 0 0 0 0
0 0 0 0 0 0 0 0 0 0 0 0 0 0 0 0 0 0 0 0 0 0 0 0 0 0 0 0 0 0 0 0 0 0 0 0 0 0 0 0 0 0 0 0
0 0 0 0 0 0 0 0 0 0 0 0 0 0 0 0 0 0 0 0 0 0 0 0 0 0 0 0 0 0 0 0 0 0 0 0 0 0 0 0 0 0 0 0
0 0 0 0 0 0 0 0 0 0 0 0 0 0 0 0 0 0 0 0 0 0 0 0 0 0 0 0 0 0 0 0 0 0 0 0 0 0 0 0 0 0 0 0
0 0 0 0 0 0 0 0 0 0 0 0 0 0 0 0 0 0 0 0 0 0 0 0 0 0 0 0 0 0 0 0 0 0 0 0 0 0 0 0 0 0 0 0
0 0 0 0 0 0 0 0 0 0 0 0 0 0 0 0 0 0 0 0 0 0 0 0 0 0 0 0 0 0 0 0 0 0 0 0 0 0 0 0 0 0 0 0
0 0 0 0 0 0 0 0 0 0 0 0 0 0 0 0 0 0 0 0 0 0 0 0 0 0 0 0 0 0 0 0 0 0 0 0 0 0 0 0 0 0 0 0
0 0 0 0 0 0 0 0 0 0 0 0 0 0 0 0 0 0 0 0 0 0 0 0 0 0 0 0 0 0 0 0 0 0 0 0 0 0 0 0 0 0 0 0
0 0 0 0 0 0 0 0 0 0 0 0 0 0 0 0 0 0 0 0 0 0 0 0 0 0 0 0 0 0 0 0 0 0 0 0 0 0 0 0 0 0 0 0
0 0 0 0 0 0 0 0 0 0 0 0 0 0 0 0 0 0 0 0 0 0 0 0 0 0 0 0 0 0 0 0 0 0 0 0 0 0 0 0 0 0 0 0
0 0 0 0 0 0 0 0 0 0 0 0 0 0 0 0 0 0 0 0 0 0 0 0 0 0 0 0 0 0 0 0 0 0 0 0 0 0 0 0 0 0 0 0
0 0 0 0 0 0 0 0 0 0 0 0 0 0 0 0 0 0 0 0 0 0 0 0 0 0 0 0 0 0 0 0 0 0 0 0 0 0 0 0 0 0 0 0
0 0 0 0 0 0 0 0 0 0 0 0 0 0 0 0 0 0 0 0 0 0 0 0 0 0 0 0 0 0 0 0 0 0 0 -0 -0 0 0 0 0 0 0 0
0 0 0 0 0 0 0 0 0 0 0 0 0 0 0 0 0 0 0 0 0 0 0 0 0 0 0 0 0 0 0 0 0 0 0 0 0 0 0 0 0 0 0 0
0 0 0 0 0 0 0 0 0 0 0 0 0 0 0 0 0 0 0 0 0 0 0 0 0 0 0 0 0 0 0 0 0 0 0 0 0 0 0 0 0 0 0 0
0 0 0 0 0 0 0 0 0 0 0 0 0 0 0 0 0 0 0 0 0 0 0 0 0 0 0 0 0 0 0 0 0 0 0 0 0 0 0 0 0 0 0 0
0 0 0 0 0 0 0 0 0 0 0 0 0 0 0 0 0 0 0 0 0 0 0 0 0 0 0 0 0 0 0 0 0 0 0 0 0 0 0 0 0 0 0 0
0 0 0 0 0 0 0 0 0 0 0 0 0 0 0 0 0 0 0 0 0 0 0 0 0 0 0 0 0 0 0 0 0 0 0 0 0 0 0 0 0 0 0 0
0 0 0 0 0 0 0 0 0 0 0 0 0 0 0 0 0 0 0 0 0 0 0 0 0 0 0 0 0 0 0 0 0 0 0 0 0 0 0 0 0 0 0 0
0 0 0 0 0 0 0 0 0 0 0 0 0 0 0 0 0 0 0 0 0 0 0 0 0 0 0 0 0 0 0 0 0 0 0 0 0 0 0 0 0 0 0 0
0 0 0 0 0 0 0 0 0 0 0 0 0 0 0 0 0 0 0 0 0 0 0 0 0 0 0 0 0 0 0 0 0 0 0 0 0 0 0 0 0 0 0 0
0 0 0 0 0 0 0 0 0 0 0 0 0 0 0 0 0 0 0 0 0 0 0 0 0 0 0 0 0 0 0 0 0 0 0 0 0 0 0 0 0 0 0 0
0 0 0 0 0 0 0 0 0 0 0 0 0 0 0 0 0 0 0 0 0 0 0 0 0 0 0 0 0 0 0 0 0 0 0 0 0 0 0 0 0 0 0 0
0 0 0 0 0 0 0 0 0 0 0 0 0 0 0 0 0 0 0 0 0 0 0 0 0 0 0 0 0 0 0 0 0 0 0 0 0 0 0 0 0 0 0 0
Wind_Speed
6 5 3 4 5 4 5 6 7 7 8 10 8 7 6 4 3 3 3 2 3 3 3 3 3 3 3 4 4 5 5 5 5 4 3 3 3 3 3 3 3 3 2 1
3 3 3 5 7 6 6 5 6 6 8 7 5 4 4 4 3 3 4 4 4 3 3 3 4 4 3 4 4 5 5 5 4 3 3 4 3 3 3 3 2 2 2 2
4 4 3 6 7 7 5 5 6 7 8 5 4 4 4 4 3 4 5 4 4 4 4 4 4 4 4 4 4 4 5 4 4 4 4 3 3 3 3 3 2 2 2 2
1 1 6 7 2 4 5 5 5 4 5 4 5 5 3 2 3 4 4 4 4 3 3 3 3 3 3 3 4 4 4 4 4 4 4 3 3 3 3 3 3 2 2 2
2 3 7 6 2 2 3 5 3 4 5 4 3 3 4 3 3 4 4 4 4 3 3 2 2 3 3 3 4 4 4 4 4 4 4 4 4 4 3 3 2 2 2 2
3 3 6 6 4 3 1 4 4 2 4 3 2 2 5 6 4 4 3 2 2 2 1 1 1 2 3 3 4 5 5 4 4 4 5 5 4 3 2 2 3 2 1 1
4 5 7 5 5 2 2 5 4 2 3 1 2 4 5 5 4 4 3 3 2 1 1 1 1 3 3 2 4 4 3 3 3 4 4 4 3 2 2 2 2 2 1 0
3 4 7 3 1 2 5 3 3 3 3 2 3 4 4 4 4 4 3 3 1 0 1 0 2 3 3 3 3 1 2 3 3 3 3 3 4 3 2 3 3 2 1 1
7 7 4 2 3 3 2 3 4 3 4 2 2 4 4 4 4 4 4 3 2 1 1 1 1 3 3 2 2 2 3 3 2 3 2 3 4 4 3 2 2 2 2 1
3 6 5 4 3 3 3 3 4 4 3 2 2 4 4 4 4 4 4 3 2 1 1 1 1 2 3 2 2 3 3 3 3 3 2 2 2 3 3 3 3 2 2 2
5 6 6 4 3 4 4 4 4 4 3 2 2 3 4 4 4 3 3 3 2 1 1 2 1 1 1 2 3 3 3 3 3 2 3 2 2 2 3 4 4 4 4 3
7 6 4 6 5 5 4 4 4 3 4 3 2 4 4 4 3 3 3 2 2 1 1 2 2 1 1 1 3 3 2 2 2 2 2 2 2 1 1 1 2 3 2 2
5 4 4 6 6 4 4 4 3 3 3 4 4 3 3 3 3 3 3 3 3 2 2 2 1 1 1 1 2 3 3 2 2 2 2 2 2 2 1 1 2 1 2 2
5 3 4 4 5 4 3 3 2 3 3 3 3 3 3 3 3 3 3 3 3 2 1 1 1 2 1 1 2 2 2 2 2 2 2 3 3 2 2 2 1 0 0 1
5 4 5 5 4 3 2 2 2 3 3 3 3 3 3 3 3 4 4 3 2 1 1 1 1 2 1 1 2 2 1 1 1 1 2 2 2 2 2 2 2 1 0 0
4 3 2 2 3 3 3 2 2 3 3 3 4 4 3 3 3 3 3 2 1 2 2 2 2 3 1 1 1 1 1 2 1 1 1 1 2 2 2 2 2 2 2 1
2 3 3 3 4 4 3 3 3 3 3 4 4 4 3 3 3 3 3 2 2 2 2 2 3 2 1 1 2 2 2 2 2 2 2 2 2 2 2 2 2 2 1 2
2 3 3 4 4 4 3 3 3 3 3 4 4 3 3 3 3 4 3 3 2 2 2 2 2 1 1 1 2 2 2 2 2 2 2 2 2 2 2 2 2 2 1 1
3 3 3 3 3 2 3 3 4 3 3 3 3 3 3 3 3 3 2 2 2 3 3 3 3 1 1 1 1 2 2 2 2 2 2 2 2 2 2 2 2 1 1 1
4 3 3 4 4 3 3 3 3 3 3 2 2 3 3 3 3 2 2 2 3 3 3 3 1 1 1 1 1 1 2 3 3 2 2 2 2 2 2 2 1 2 1 1
4 4 3 3 4 4 3 3 3 3 4 3 2 3 3 4 3 2 1 3 4 3 2 3 1 1 1 1 1 2 2 2 3 3 3 2 2 2 2 2 2 1 1 1
3 3 4 4 4 5 4 3 3 3 3 3 3 3 3 3 3 3 3 3 3 3 2 1 1 2 1 1 1 2 2 2 2 2 2 2 2 2 2 2 2 2 2 2
3 3 3 4 4 4 5 4 4 3 3 3 3 3 3 3 2 2 3 3 2 3 1 1 2 2 1 2 2 1 1 2 1 1 2 2 2 2 2 2 2 2 2 2
4 4 4 4 3 3 4 5 4 3 4 3 3 3 3 2 2 2 2 3 3 3 1 1 2 1 1 2 2 1 1 1 1 1 1 1 1 1 1 1 1 1 1 1
3 3 3 3 3 3 4 4 4 4 4 3 3 3 2 2 2 3 2 2 3 2 1 1 1 1 2 2 1 1 1 1 1 1 1 1 1 1 1 1 1 1 1 1
3 3 3 3 3 3 3 2 3 3 3 3 3 3 2 2 2 2 2 1 1 1 1 1 1 1 1 1 1 1 1 1 0 1 1 1 1 1 1 1 1 1 1 1
3 3 3 3 3 3 2 2 2 3 3 2 3 3 2 2 2 1 1 1 1 1 1 1 1 1 1 1 1 1 1 1 1 1 1 1 1 1 1 1 1 1 1 1
Wind_Direction
244 249 231 237 249 213 201 203 209 241 246 269 279 276 284 289 300 318 311 289 246 228 226 219 212 212 203 198 190 182 180 187 201 200 186 178 178 180 176 177 177 165 150 144
279 275 251 259 260 239 233 232 235 257 266 265 278 290 299 290 286 289 283 273 257 240 231 227 218 214 208 202 192 180 183 194 193 182 178 177 178 170 161 158 152 139 147 158
269 302 325 271 243 217 222 225 204 229 252 283 300 295 280 279 279 270 273 276 257 242 230 229 222 209 206 204 185 179 187 189 183 178 181 180 171 159 163 166 157 148 161 164
250 351 248 248 263 210 220 242 228 245 273 278 265 275 275 270 270 284 288 281 272 258 245 238 216 204 192 177 173 179 183 185 180 174 173 166 162 168 170 165 167 172 179 188
155 241 273 292 295 229 221 266 253 252 282 298 317 343 318 308 288 272 277 271 260 255 242 225 212 192 168 169 174 179 187 191 187 178 172 169 172 180 177 164 169 178 188 187
160 210 244 259 296 305 174 274 307 286 289 305 28 2 296 315 318 311 309 306 293 289 294 226 218 159 157 173 179 194 196 195 189 181 178 180 183 183 174 167 174 167 180 197
196 227 256 272 300 6 171 263 308 296 290 277 225 239 281 317 327 324 320 319 326 319 260 242 168 140 154 175 208 214 188 172 172 178 179 176 170 166 161 154 143 143 152 198
173 213 256 290 69 168 235 277 302 299 292 266 274 299 314 325 324 326 329 332 331 336 311 320 151 150 166 207 221 174 154 160 168 172 175 160 154 156 153 149 143 145 137 62
195 218 247 239 215 253 266 292 298 301 299 292 303 305 313 318 315 315 318 322 333 345 340 358 173 163 182 216 175 149 148 158 163 159 162 163 162 160 156 161 163 167 164 175
257 266 272 274 279 297 300 283 293 299 300 308 296 295 302 309 313 317 319 321 338 17 354 318 260 200 197 181 159 153 159 165 163 156 156 158 166 165 167 177 182 181 185 193
263 283 308 296 286 290 300 306 314 323 316 294 292 298 295 298 304 305 310 319 331 308 273 292 294 253 210 170 160 160 163 167 168 169 167 163 167 181 188 203 198 191 199 190
237 240 237 271 287 295 295 297 297 313 321 317 298 286 292 295 301 301 302 306 305 312 303 307 310 308 293 181 161 157 156 167 173 170 165 161 154 97 341 217 202 197 187 178
241 259 246 266 286 282 274 282 290 291 293 305 308 294 294 300 303 306 308 303 290 284 288 293 288 295 291 199 159 166 169 175 177 176 172 176 173 164 149 29 62 125 146 159
259 263 275 274 277 282 282 286 296 310 310 303 303 306 306 307 312 310 295 284 280 288 298 295 282 286 272 176 158 162 155 167 172 186 182 180 180 180 174 161 148 39 224 163
278 250 246 272 288 294 298 308 322 317 320 324 319 316 312 307 303 297 293 291 291 309 311 308 298 297 289 171 160 172 172 175 175 170 167 169 167 168 169 169 167 163 118 98
300 307 295 287 288 296 307 308 297 295 306 315 315 313 310 303 304 307 308 302 287 283 285 281 278 283 284 191 159 166 186 195 157 142 143 151 163 169 176 178 177 176 181 180
296 299 302 303 298 294 290 287 279 285 298 303 301 306 318 321 324 324 320 311 293 283 284 274 275 278 248 206 186 181 177 180 157 138 162 172 177 183 180 178 178 180 192 188
256 256 254 257 266 282 295 298 288 287 289 292 300 313 318 313 304 302 309 321 326 321 302 283 279 276 248 221 192 180 175 171 169 171 171 170 167 163 158 164 169 165 159 153
352 341 326 311 297 287 290 294 294 292 295 299 304 302 298 299 298 294 299 310 305 297 296 292 303 329 279 248 213 161 156 156 152 152 153 150 138 141 151 161 169 176 168 166
349 346 339 331 337 334 317 306 306 309 304 299 303 306 307 305 305 302 298 290 279 275 281 291 300 265 243 239 206 151 157 160 160 158 150 152 153 154 158 167 179 183 182 185
332 331 333 334 332 328 320 310 303 302 302 301 291 285 287 293 298 296 292 296 300 297 288 290 300 262 243 216 157 143 154 160 164 163 161 160 160 161 164 170 175 185 196 206
315 318 324 326 325 320 317 314 308 305 308 309 302 294 296 301 306 306 285 271 286 298 307 290 270 264 273 111 123 140 145 146 150 153 156 159 165 177 186 188 189 200 208 211
305 309 312 311 308 309 319 320 314 309 305 299 295 294 290 283 285 291 300 300 296 292 303 272 288 299 66 97 112 128 130 132 139 150 160 166 173 182 191 198 204 210 215 221
305 306 302 304 315 322 316 311 314 311 305 299 296 291 285 293 302 282 269 292 300 297 293 292 309 335 73 95 105 107 108 116 132 153 155 153 160 166 176 190 209 219 220 225
294 297 304 313 314 302 297 305 314 313 312 312 312 307 293 264 266 286 296 293 295 308 346 339 6 34 78 93 101 104 108 137 155 142 142 155 171 177 186 195 207 221 226 232
286 285 282 282 281 285 291 296 296 298 300 312 317 316 316 316 306 303 311 313 318 349 23 35 48 53 72 88 94 95 93 91 86 120 154 169 175 182 191 200 220 233 237 241
290 292 297 303 301 293 287 287 289 292 290 288 300 309 313 322 332 338 348 4 24 44 53 48 52 66 77 82 80 78 77 75 79 93 122 152 175 189 203 211 228 244 255 251